Tracking 19245 objects as of 15-Aug-2018
HD Live streaming from Space Station
objects crossing your sky now

PSLV R/B


PSLV R/B is no longer on orbit


NORAD ID: 42796
Int'l Code: 2017-036AH
Perigee: N/A
Apogee: N/A
Inclination: N/A
Period: N/A
Semi major axis: N/A
RCS: N/A
Launch date: June 23, 2017
Source: India (IND)
Launch site: SRIHARIKOTA (SRI)
Decay date: 2018-07-24

Note: This is a ROCKET BODY
aabbcc
Your satellite tracking list
Your tracking list is empty




NASA's NSSDC Master Catalog

Two Line Element Set (TLE):
1 42796U 17036AH  18205.54087784 +.08488241 +10187-5 +16868-3 0  9993
2 42796 094.6041 142.4081 0010897 212.0350 148.7303 16.46474073062648
Source of the keplerian elements: AFSPC